User: anonymous
Location: Blue Mountain Vista Observatory
(40.6992°N, 75.9422°W)
Time: 11:50:18
(UTC-04:00)
Language:

CZ-4C R/B - Orbit

View from above orbital plane
View from above orbital plane
View from above satellite
View from above satellite

Ground track
Ground track

The orbit data is extracted from the following two-line orbital elements,

1 36416U 10009D   14261.78246063 -.00000132  00000-0 -30676-4 0  7486
2 36416 063.4488 069.6137 0288912 000.1302 359.9762 13.69423808227098
Epoch (UTC): 18 September 2014 18:46:44
Eccentricity: 0.0288912
inclination: 63.4488°
perigee height: 788 km
apogee height: 1215 km
right ascension of ascending node: 69.6137°
argument of perigee: 0.1302°
revolutions per day: 13.69423808
mean anomaly at epoch: 359.9762°
orbit number at epoch: 22709

The dashed part of the orbit path shows where the satellite is in the earth's shadow,  

DLR